Time,TemperatureF,DewpointF,PressureIn,WindDirection,WindDirectionDegrees,WindSpeedMPH,WindSpeedGustMPH,Humidity,HourlyPrecipIn,Conditions,Clouds,dailyrainin,SolarRadiationWatts/m^2,SoftwareType,DateUTC
2013-08-23 00:02:00,76.4,66.7,29.98,NNE,26,0.0,0.0,72,0.00,,,0.00,0.0,WeatherDisplay:10.37,2013-08-22 22:02:00,
2013-08-23 00:07:00,76.4,66.7,29.98,NNE,26,0.0,0.0,72,0.00,,,0.00,0.0,WeatherDisplay:10.37,2013-08-22 22:07:00,
2013-08-23 00:12:00,76.4,66.7,29.98,NNE,26,0.0,0.0,72,0.00,,,0.00,0.0,WeatherDisplay:10.37,2013-08-22 22:12:00,
2013-08-23 00:17:00,76.4,66.7,29.98,NNE,26,0.0,0.0,72,0.00,,,0.00,0.0,WeatherDisplay:10.37,2013-08-22 22:17:00,
2013-08-23 00:22:00,76.4,67.1,29.98,NNE,23,1.2,0.0,73,0.00,,,0.00,0.0,WeatherDisplay:10.37,2013-08-22 22:22:00,
2013-08-23 00:27:00,76.4,66.7,29.98,NNE,23,2.3,2.3,72,0.00,,,0.00,0.0,WeatherDisplay:10.37,2013-08-22 22:27:00,
2013-08-23 00:32:00,76.3,67.0,29.98,NNE,27,2.3,2.3,73,0.00,,,0.00,0.0,WeatherDisplay:10.37,2013-08-22 22:32:00,
2013-08-23 00:37:00,76.2,66.9,29.98,NE,41,3.5,3.5,73,0.00,,,0.00,0.0,WeatherDisplay:10.37,2013-08-22 22:37:00,
2013-08-23 00:42:00,76.2,66.9,29.98,NE,38,2.3,2.3,73,0.00,,,0.00,0.0,WeatherDisplay:10.37,2013-08-22 22:42:00,
2013-08-23 00:47:00,76.2,66.9,29.98,NNE,25,1.2,1.2,73,0.00,,,0.00,0.0,WeatherDisplay:10.37,2013-08-22 22:47:00,
2013-08-23 00:52:00,76.1,66.8,29.98,NNE,28,2.3,2.3,73,0.00,,,0.00,0.0,WeatherDisplay:10.37,2013-08-22 22:52:00,
2013-08-23 00:57:00,76.0,66.7,29.98,NE,36,3.5,3.5,73,0.00,,,0.00,0.0,WeatherDisplay:10.37,2013-08-22 22:57:00,
2013-08-23 01:02:00,75.8,66.1,29.98,NNE,13,3.5,3.5,72,0.00,,,0.00,0.0,WeatherDisplay:10.37,2013-08-22 23:02:00,
2013-08-23 01:07:00,75.7,66.0,29.98,NW,321,2.3,2.3,72,0.00,,,0.00,0.0,WeatherDisplay:10.37,2013-08-22 23:07:00,
2013-08-23 01:12:00,75.6,65.9,29.98,SW,221,1.2,1.2,72,0.00,,,0.00,0.0,WeatherDisplay:10.37,2013-08-22 23:12:00,
2013-08-23 01:17:00,75.6,65.5,29.98,ESE,115,1.2,1.2,71,0.00,,,0.00,0.0,WeatherDisplay:10.37,2013-08-22 23:17:00,
2013-08-23 01:22:00,75.3,65.6,29.98,ENE,69,4.6,4.6,72,0.00,,,0.00,0.0,WeatherDisplay:10.37,2013-08-22 23:22:00,
2013-08-23 01:27:00,74.9,65.3,29.97,ENE,76,4.6,4.6,72,0.00,,,0.00,0.0,WeatherDisplay:10.37,2013-08-22 23:27:00,
2013-08-23 01:32:00,74.7,65.1,29.97,ENE,68,2.3,2.3,72,0.00,,,0.00,0.0,WeatherDisplay:10.37,2013-08-22 23:32:00,
2013-08-23 01:37:00,74.7,65.5,29.97,NW,312,1.2,0.0,73,0.00,,,0.00,0.0,WeatherDisplay:10.37,2013-08-22 23:37:00,
2013-08-23 01:42:00,74.6,65.4,29.97,WSW,257,2.3,2.3,73,0.00,,,0.00,0.0,WeatherDisplay:10.37,2013-08-22 23:42:00,
2013-08-23 01:47:00,74.7,65.5,29.97,NNE,12,1.2,1.2,73,0.00,,,0.00,0.0,WeatherDisplay:10.37,2013-08-22 23:47:00,
2013-08-23 01:52:00,74.7,65.5,29.97,West,264,1.2,1.2,73,0.00,,,0.00,0.0,WeatherDisplay:10.37,2013-08-22 23:52:00,
2013-08-23 01:57:00,74.6,65.4,29.97,WNW,297,1.2,1.2,73,0.00,,,0.00,0.0,WeatherDisplay:10.37,2013-08-22 23:57:00,
2013-08-23 02:02:00,74.6,65.4,29.97,WSW,240,1.2,1.2,73,0.00,,,0.00,0.0,WeatherDisplay:10.37,2013-08-23 00:02:00,
2013-08-23 02:07:00,74.5,65.3,29.97,NW,324,1.2,1.2,73,0.00,,,0.00,0.0,WeatherDisplay:10.37,2013-08-23 00:07:00,
2013-08-23 02:12:00,74.3,65.5,29.97,ESE,112,3.5,3.5,74,0.00,,,0.00,0.0,WeatherDisplay:10.37,2013-08-23 00:12:00,
2013-08-23 02:17:00,74.1,65.3,29.97,SW,219,2.3,2.3,74,0.00,,,0.00,0.0,WeatherDisplay:10.37,2013-08-23 00:17:00,
2013-08-23 02:22:00,74.1,65.3,29.97,WSW,239,1.2,1.2,74,0.00,,,0.00,0.0,WeatherDisplay:10.37,2013-08-23 00:22:00,
2013-08-23 02:27:00,74.1,65.3,29.97,SE,142,1.2,1.2,74,0.00,,,0.00,0.0,WeatherDisplay:10.37,2013-08-23 00:27:00,
2013-08-23 02:32:00,74.1,65.7,29.97,NE,39,1.2,1.2,75,0.00,,,0.00,0.0,WeatherDisplay:10.37,2013-08-23 00:32:00,
2013-08-23 02:37:00,74.0,65.6,29.97,SW,233,1.0,1.0,75,0.00,,,0.00,0.0,WeatherDisplay:10.37,2013-08-23 00:37:00,
2013-08-23 02:42:00,74.0,65.6,29.97,NE,49,1.2,1.2,75,0.00,,,0.00,0.0,WeatherDisplay:10.37,2013-08-23 00:42:00,
2013-08-23 02:47:00,73.9,65.5,29.97,South,171,1.2,1.2,75,0.00,,,0.00,0.0,WeatherDisplay:10.37,2013-08-23 00:47:00,
2013-08-23 02:52:00,73.8,65.4,29.96,SSW,208,1.2,1.2,75,0.00,,,0.00,0.0,WeatherDisplay:10.37,2013-08-23 00:52:00,
2013-08-23 02:57:00,73.8,65.4,29.96,South,176,2.3,2.3,75,0.00,,,0.00,0.0,WeatherDisplay:10.37,2013-08-23 00:57:00,
2013-08-23 03:02:00,73.7,65.3,29.96,WSW,244,2.3,2.3,75,0.00,,,0.00,0.0,WeatherDisplay:10.37,2013-08-23 01:02:00,
2013-08-23 03:07:00,73.7,65.3,29.96,SW,229,1.2,1.2,75,0.00,,,0.00,0.0,WeatherDisplay:10.37,2013-08-23 01:07:00,
2013-08-23 03:12:00,73.6,65.2,29.96,SSE,153,1.2,1.2,75,0.00,,,0.00,0.0,WeatherDisplay:10.37,2013-08-23 01:12:00,
2013-08-23 03:17:00,73.6,65.6,29.96,East,85,3.5,3.5,76,0.00,,,0.00,0.0,WeatherDisplay:10.37,2013-08-23 01:17:00,
2013-08-23 03:22:00,73.5,65.5,29.96,East,98,1.2,0.0,76,0.00,,,0.00,0.0,WeatherDisplay:10.37,2013-08-23 01:22:00,
2013-08-23 03:27:00,73.5,65.5,29.96,West,259,1.2,1.2,76,0.00,,,0.00,0.0,WeatherDisplay:10.37,2013-08-23 01:27:00,
2013-08-23 03:32:00,73.6,65.6,29.96,WSW,240,1.2,1.2,76,0.00,,,0.00,0.0,WeatherDisplay:10.37,2013-08-23 01:32:00,
2013-08-23 03:37:00,73.5,65.5,29.96,SSW,210,3.5,3.5,76,0.00,,,0.00,0.0,WeatherDisplay:10.37,2013-08-23 01:37:00,
2013-08-23 03:42:00,73.7,65.7,29.96,North,11,2.3,2.3,76,0.00,,,0.00,0.0,WeatherDisplay:10.37,2013-08-23 01:42:00,
2013-08-23 03:47:00,73.7,65.3,29.96,North,5,1.2,1.2,75,0.00,,,0.00,0.0,WeatherDisplay:10.37,2013-08-23 01:47:00,
2013-08-23 03:52:00,73.7,65.3,29.96,SW,234,1.2,1.2,75,0.00,,,0.00,0.0,WeatherDisplay:10.37,2013-08-23 01:52:00,
2013-08-23 03:57:00,73.6,64.8,29.96,ENE,72,2.3,2.3,74,0.00,,,0.00,0.0,WeatherDisplay:10.37,2013-08-23 01:57:00,
2013-08-23 04:02:00,73.6,64.8,29.96,NNE,26,3.5,3.5,74,0.00,,,0.00,0.0,WeatherDisplay:10.37,2013-08-23 02:02:00,
2013-08-23 04:07:00,73.8,65.0,29.96,NNE,15,1.2,0.0,74,0.00,,,0.00,0.0,WeatherDisplay:10.37,2013-08-23 02:07:00,
2013-08-23 04:12:00,74.0,64.8,29.96,WSW,240,0.0,0.0,73,0.00,,,0.00,0.0,WeatherDisplay:10.37,2013-08-23 02:12:00,
2013-08-23 04:17:00,73.9,64.3,29.96,NE,53,1.2,0.0,72,0.00,,,0.00,0.0,WeatherDisplay:10.37,2013-08-23 02:17:00,
2013-08-23 04:22:00,73.7,63.7,29.96,NE,53,0.0,0.0,71,0.00,,,0.00,0.0,WeatherDisplay:10.37,2013-08-23 02:22:00,
2013-08-23 04:27:00,73.5,63.9,29.97,East,81,0.0,0.0,72,0.00,,,0.00,0.0,WeatherDisplay:10.37,2013-08-23 02:27:00,
2013-08-23 04:32:00,73.5,64.3,29.97,ESE,113,1.2,1.2,73,0.00,,,0.00,0.0,WeatherDisplay:10.37,2013-08-23 02:32:00,
2013-08-23 04:37:00,73.4,64.6,29.97,East,79,0.0,0.0,74,0.00,,,0.00,0.0,WeatherDisplay:10.37,2013-08-23 02:37:00,
2013-08-23 04:42:00,73.3,64.5,29.96,SSW,192,0.0,0.0,74,0.00,,,0.00,0.0,WeatherDisplay:10.37,2013-08-23 02:42:00,
2013-08-23 04:47:00,73.3,64.5,29.96,SSW,192,0.0,0.0,74,0.00,,,0.00,0.0,WeatherDisplay:10.37,2013-08-23 02:47:00,
2013-08-23 04:52:00,73.1,64.3,29.96,SSW,198,0.0,0.1,74,0.00,,,0.00,0.0,WeatherDisplay:10.37,2013-08-23 02:52:00,
2013-08-23 04:57:00,73.0,64.2,29.96,SSW,196,1.2,1.2,74,0.00,,,0.00,0.0,WeatherDisplay:10.37,2013-08-23 02:57:00,
2013-08-23 05:02:00,73.0,64.2,29.96,WSW,258,1.2,1.2,74,0.00,,,0.00,0.0,WeatherDisplay:10.37,2013-08-23 03:02:00,
2013-08-23 05:08:00,72.9,64.1,29.96,NE,40,1.2,1.2,74,0.00,,,0.00,0.0,WeatherDisplay:10.37,2013-08-23 03:08:00,
2013-08-23 05:13:00,72.8,64.0,29.96,South,178,1.2,1.2,74,0.00,,,0.00,0.0,WeatherDisplay:10.37,2013-08-23 03:13:00,
2013-08-23 05:18:00,72.8,64.0,29.96,WNW,286,1.2,1.2,74,0.00,,,0.00,0.0,WeatherDisplay:10.37,2013-08-23 03:18:00,
2013-08-23 05:23:00,72.9,64.1,29.96,SW,216,2.3,2.3,74,0.00,,,0.00,0.0,WeatherDisplay:10.37,2013-08-23 03:23:00,
2013-08-23 05:28:00,72.9,64.1,29.96,SE,125,1.2,1.2,74,0.00,,,0.00,0.0,WeatherDisplay:10.37,2013-08-23 03:28:00,
2013-08-23 05:33:00,72.8,64.0,29.96,NW,306,2.3,2.3,74,0.00,,,0.00,0.0,WeatherDisplay:10.37,2013-08-23 03:33:00,
2013-08-23 05:38:00,72.8,64.0,29.96,WNW,300,1.2,1.2,74,0.00,,,0.00,0.0,WeatherDisplay:10.37,2013-08-23 03:38:00,
2013-08-23 05:43:00,72.9,64.1,29.96,SW,215,2.3,2.3,74,0.00,,,0.00,0.0,WeatherDisplay:10.37,2013-08-23 03:43:00,
2013-08-23 05:48:00,73.0,63.8,29.96,NNW,332,1.2,1.2,73,0.00,,,0.00,0.0,WeatherDisplay:10.37,2013-08-23 03:48:00,
2013-08-23 05:53:00,73.2,64.0,29.96,West,259,1.2,1.2,73,0.00,,,0.00,0.0,WeatherDisplay:10.37,2013-08-23 03:53:00,
2013-08-23 05:58:00,73.3,64.1,29.96,NE,36,1.2,1.2,73,0.00,,,0.00,0.0,WeatherDisplay:10.37,2013-08-23 03:58:00,
2013-08-23 06:01:00,73.3,63.7,29.96,NNE,33,2.3,2.3,72,0.00,,,0.00,0.0,WeatherDisplay:10.37,2013-08-23 04:01:00,
2013-08-23 06:06:00,73.4,63.8,29.96,NNE,22,2.3,2.3,72,0.00,,,0.00,0.0,WeatherDisplay:10.37,2013-08-23 04:06:00,
2013-08-23 06:11:00,73.5,63.9,29.96,NNE,28,1.2,1.2,72,0.00,,,0.00,0.0,WeatherDisplay:10.37,2013-08-23 04:11:00,
2013-08-23 06:16:00,73.6,64.0,29.97,NNE,26,1.2,0.0,72,0.00,,,0.00,0.0,WeatherDisplay:10.37,2013-08-23 04:16:00,
2013-08-23 06:21:00,73.6,64.0,29.96,North,355,1.2,1.2,72,0.00,,,0.00,0.0,WeatherDisplay:10.37,2013-08-23 04:21:00,
2013-08-23 06:26:00,73.5,63.5,29.97,NNW,341,0.0,0.0,71,0.00,BKN,,0.00,5.0,WeatherDisplay:10.37,2013-08-23 04:26:00,
2013-08-23 06:31:00,73.2,63.6,29.97,NNW,341,0.0,0.0,72,0.00,BKN,,0.00,11.0,WeatherDisplay:10.37,2013-08-23 04:31:00,
2013-08-23 06:36:00,72.8,63.2,29.97,NNW,336,1.2,0.0,72,0.00,BKN,,0.00,14.0,WeatherDisplay:10.37,2013-08-23 04:36:00,
2013-08-23 06:41:00,72.6,63.4,29.97,WSW,245,1.2,1.2,73,0.00,BKN,,0.00,19.0,WeatherDisplay:10.37,2013-08-23 04:41:00,
2013-08-23 06:46:00,72.4,63.6,29.97,SSW,200,1.2,0.0,74,0.00,BKN,,0.00,26.0,WeatherDisplay:10.37,2013-08-23 04:46:00,
2013-08-23 06:51:00,72.4,63.6,29.97,ESE,121,0.0,0.0,74,0.00,BKN,,0.00,33.0,WeatherDisplay:10.37,2013-08-23 04:51:00,
2013-08-23 06:56:00,72.5,63.7,29.97,SE,128,0.0,0.0,74,0.00,BKN,,0.00,42.0,WeatherDisplay:10.37,2013-08-23 04:56:00,
2013-08-23 07:01:00,72.7,63.9,29.97,WNW,287,0.0,0.0,74,0.00,SCT,,0.00,51.0,WeatherDisplay:10.37,2013-08-23 05:01:00,
2013-08-23 07:06:00,72.8,64.0,29.97,West,273,0.0,0.0,74,0.00,SCT,,0.00,62.0,WeatherDisplay:10.37,2013-08-23 05:06:00,
2013-08-23 07:11:00,73.0,64.2,29.97,SW,217,1.2,0.0,74,0.00,SCT,,0.00,70.0,WeatherDisplay:10.37,2013-08-23 05:11:00,
2013-08-23 07:16:00,73.2,64.4,29.97,NW,320,0.0,0.0,74,0.00,SCT,,0.00,83.0,WeatherDisplay:10.37,2013-08-23 05:16:00,
2013-08-23 07:21:00,73.5,64.3,29.97,WSW,257,1.2,0.0,73,0.00,SCT,,0.00,93.0,WeatherDisplay:10.37,2013-08-23 05:21:00,
2013-08-23 07:26:00,73.8,64.6,29.97,NNW,331,1.2,1.2,73,0.00,SCT,,0.00,107.0,WeatherDisplay:10.37,2013-08-23 05:26:00,
2013-08-23 07:31:00,74.2,64.6,29.97,ESE,117,2.3,2.3,72,0.00,SCT,,0.00,121.0,WeatherDisplay:10.37,2013-08-23 05:31:00,
2013-08-23 07:36:00,74.6,65.0,29.97,East,98,1.2,1.2,72,0.00,SCT,,0.00,137.0,WeatherDisplay:10.37,2013-08-23 05:36:00,
2013-08-23 07:41:00,74.8,65.2,29.97,East,82,3.5,3.5,72,0.00,SCT,,0.00,151.0,WeatherDisplay:10.37,2013-08-23 05:41:00,
2013-08-23 07:46:00,74.8,65.2,29.97,NE,34,1.2,1.2,72,0.00,FEW,,0.00,167.0,WeatherDisplay:10.37,2013-08-23 05:46:00,
2013-08-23 07:51:00,74.9,65.3,29.97,South,173,1.2,1.2,72,0.00,FEW,,0.00,181.0,WeatherDisplay:10.37,2013-08-23 05:51:00,
2013-08-23 08:00:00,75.3,65.2,29.97,ESE,113,2.3,2.3,71,0.00,FEW,,0.00,206.0,WeatherDisplay:10.37,2013-08-23 06:00:00,
2013-08-23 08:05:00,75.7,65.6,29.97,ENE,65,1.2,1.2,71,0.00,FEW,,0.00,218.0,WeatherDisplay:10.37,2013-08-23 06:05:00,
2013-08-23 08:10:00,76.0,65.5,29.98,NNE,32,2.3,0.0,70,0.00,FEW,,0.00,232.0,WeatherDisplay:10.37,2013-08-23 06:10:00,
2013-08-23 08:15:00,76.3,65.4,29.98,East,86,0.0,2.0,69,0.00,FEW,,0.00,244.0,WeatherDisplay:10.37,2013-08-23 06:15:00,
2013-08-23 08:20:00,76.5,65.2,29.98,East,101,1.0,2.0,68,0.00,FEW,,0.00,258.0,WeatherDisplay:10.37,2013-08-23 06:20:00,
2013-08-23 08:25:00,76.8,65.4,29.98,East,94,0.0,0.0,68,0.00,FEW,,0.00,271.0,WeatherDisplay:10.37,2013-08-23 06:25:00,
2013-08-23 08:30:00,77.1,64.9,29.98,East,92,2.3,2.3,66,0.00,FEW,,0.00,285.0,WeatherDisplay:10.37,2013-08-23 06:30:00,
2013-08-23 08:35:00,77.2,65.0,29.98,East,95,2.3,2.3,66,0.00,FEW,,0.00,299.0,WeatherDisplay:10.37,2013-08-23 06:35:00,
2013-08-23 08:40:00,77.4,65.1,29.98,ESE,102,1.0,3.0,66,0.00,FEW,,0.00,315.0,WeatherDisplay:10.37,2013-08-23 06:40:00,
2013-08-23 08:45:00,77.6,65.3,29.98,SE,128,2.3,2.3,66,0.00,FEW,,0.00,327.0,WeatherDisplay:10.37,2013-08-23 06:45:00,
2013-08-23 08:50:00,77.8,65.1,29.98,East,101,1.0,3.0,65,0.00,FEW,,0.00,339.0,WeatherDisplay:10.37,2013-08-23 06:50:00,
2013-08-23 08:55:00,77.9,65.6,29.98,East,95,3.5,3.5,66,0.00,FEW,,0.00,352.0,WeatherDisplay:10.37,2013-08-23 06:55:00,
2013-08-23 09:00:00,78.1,65.8,29.98,South,189,1.2,1.2,66,0.00,FEW,,0.00,369.0,WeatherDisplay:10.37,2013-08-23 07:00:00,
2013-08-23 09:05:00,78.6,66.3,29.98,SE,128,2.3,2.3,66,0.00,FEW,,0.00,387.0,WeatherDisplay:10.37,2013-08-23 07:05:00,
2013-08-23 09:10:00,78.9,67.0,29.98,South,186,3.5,3.5,67,0.00,FEW,,0.00,401.0,WeatherDisplay:10.37,2013-08-23 07:10:00,
2013-08-23 09:15:00,78.6,66.7,29.98,WNW,300,1.2,1.2,67,0.00,FEW,,0.00,413.0,WeatherDisplay:10.37,2013-08-23 07:15:00,
2013-08-23 09:20:00,78.8,67.8,29.98,WSW,247,3.0,3.5,69,0.00,FEW,,0.00,427.0,WeatherDisplay:10.37,2013-08-23 07:20:00,
2013-08-23 09:25:00,78.9,68.3,29.98,South,186,3.5,3.5,70,0.00,FEW,,0.00,441.0,WeatherDisplay:10.37,2013-08-23 07:25:00,
2013-08-23 09:30:00,78.9,68.3,29.98,NNE,27,3.5,3.5,70,0.00,FEW,,0.00,457.0,WeatherDisplay:10.37,2013-08-23 07:30:00,
2013-08-23 09:35:00,78.3,68.1,29.98,SW,227,4.6,4.6,71,0.00,FEW,,0.00,473.0,WeatherDisplay:10.37,2013-08-23 07:35:00,
2013-08-23 09:40:00,78.2,68.0,29.98,SSW,210,6.0,6.0,71,0.00,FEW,,0.00,482.0,WeatherDisplay:10.37,2013-08-23 07:40:00,
2013-08-23 09:45:00,77.9,68.1,29.99,SSW,207,7.0,7.0,72,0.00,FEW,,0.00,496.0,WeatherDisplay:10.37,2013-08-23 07:45:00,
2013-08-23 09:50:00,77.8,68.0,29.98,SSW,203,6.9,6.9,72,0.00,FEW,,0.00,506.0,WeatherDisplay:10.37,2013-08-23 07:50:00,
2013-08-23 09:55:00,78.1,68.3,29.99,SSW,193,3.5,3.5,72,0.00,FEW,,0.00,520.0,WeatherDisplay:10.37,2013-08-23 07:55:00,
2013-08-23 10:00:00,78.2,68.4,29.99,SW,221,5.0,5.0,72,0.00,FEW,,0.00,531.0,WeatherDisplay:10.37,2013-08-23 08:00:00,
2013-08-23 10:05:00,78.2,68.8,29.99,SSW,213,6.9,6.9,73,0.00,FEW,,0.00,543.0,WeatherDisplay:10.37,2013-08-23 08:05:00,
2013-08-23 10:10:00,78.3,68.9,29.99,East,82,6.9,6.9,73,0.00,FEW,,0.00,557.0,WeatherDisplay:10.37,2013-08-23 08:10:00,
2013-08-23 10:15:00,78.5,69.1,29.99,SW,227,5.8,5.8,73,0.00,FEW,,0.00,570.0,WeatherDisplay:10.37,2013-08-23 08:15:00,
2013-08-23 10:20:00,78.8,69.4,29.99,SW,217,5.8,5.8,73,0.00,FEW,,0.00,582.0,WeatherDisplay:10.37,2013-08-23 08:20:00,
2013-08-23 10:25:00,78.7,69.7,29.99,SW,229,5.0,5.0,74,0.00,FEW,,0.00,591.0,WeatherDisplay:10.37,2013-08-23 08:25:00,
2013-08-23 10:30:00,78.9,69.9,29.99,SW,232,2.3,2.3,74,0.00,FEW,,0.00,601.0,WeatherDisplay:10.37,2013-08-23 08:30:00,
2013-08-23 10:35:00,79.3,69.9,29.99,SW,224,6.9,6.9,73,0.00,FEW,,0.00,613.0,WeatherDisplay:10.37,2013-08-23 08:35:00,
2013-08-23 10:40:00,79.4,70.0,29.99,WSW,254,6.9,6.9,73,0.00,FEW,,0.00,622.0,WeatherDisplay:10.37,2013-08-23 08:40:00,
2013-08-23 10:45:00,79.1,68.9,29.99,WSW,256,5.8,5.8,71,0.00,FEW,,0.00,636.0,WeatherDisplay:10.37,2013-08-23 08:45:00,
2013-08-23 10:50:00,79.4,69.2,29.99,WSW,257,9.0,9.0,71,0.00,FEW,,0.00,649.0,WeatherDisplay:10.37,2013-08-23 08:50:00,
2013-08-23 10:55:00,79.7,69.9,29.99,SSW,207,6.9,6.9,72,0.00,FEW,,0.00,657.0,WeatherDisplay:10.37,2013-08-23 08:55:00,
2013-08-23 11:00:00,80.0,69.7,29.99,WSW,249,10.4,10.4,71,0.00,FEW,,0.00,664.0,WeatherDisplay:10.37,2013-08-23 09:00:00,
2013-08-23 11:05:00,79.7,69.9,29.99,WSW,239,10.4,10.4,72,0.00,FEW,,0.00,673.0,WeatherDisplay:10.37,2013-08-23 09:05:00,
2013-08-23 11:10:00,79.7,70.3,29.99,SW,214,8.1,8.1,73,0.00,FEW,,0.00,686.0,WeatherDisplay:10.37,2013-08-23 09:10:00,
2013-08-23 11:15:00,80.1,70.7,29.99,SSW,195,7.0,7.0,73,0.00,FEW,,0.00,689.0,WeatherDisplay:10.37,2013-08-23 09:15:00,
2013-08-23 11:20:00,80.0,69.7,29.99,SW,233,9.2,9.2,71,0.00,FEW,,0.00,696.0,WeatherDisplay:10.37,2013-08-23 09:20:00,
2013-08-23 11:25:00,79.4,69.6,29.99,West,271,11.5,11.5,72,0.00,FEW,,0.00,703.0,WeatherDisplay:10.37,2013-08-23 09:25:00,
2013-08-23 11:30:00,79.5,70.1,29.99,ENE,61,8.1,8.1,73,0.00,FEW,,0.00,710.0,WeatherDisplay:10.37,2013-08-23 09:30:00,
2013-08-23 11:35:00,79.8,70.0,29.99,SW,236,11.5,11.5,72,0.00,FEW,,0.00,717.0,WeatherDisplay:10.37,2013-08-23 09:35:00,
2013-08-23 11:40:00,80.1,70.3,29.99,WSW,246,9.0,9.0,72,0.00,FEW,,0.00,724.0,WeatherDisplay:10.37,2013-08-23 09:40:00,
2013-08-23 11:45:00,79.9,68.8,29.99,WSW,246,9.2,9.2,69,0.00,FEW,,0.00,729.0,WeatherDisplay:10.37,2013-08-23 09:45:00,
2013-08-23 11:50:00,79.8,70.0,29.99,WSW,248,10.4,10.4,72,0.00,FEW,,0.00,740.0,WeatherDisplay:10.37,2013-08-23 09:50:00,
2013-08-23 11:55:00,79.8,69.6,29.99,WSW,248,10.4,10.4,71,0.00,FEW,,0.00,742.0,WeatherDisplay:10.37,2013-08-23 09:55:00,
2013-08-23 12:00:00,80.4,70.5,29.99,SSW,197,9.2,9.2,72,0.00,FEW,,0.00,744.0,WeatherDisplay:10.37,2013-08-23 10:00:00,
2013-08-23 12:05:00,80.4,70.5,29.99,WSW,245,9.2,9.2,72,0.00,FEW,,0.00,751.0,WeatherDisplay:10.37,2013-08-23 10:05:00,
2013-08-23 12:10:00,80.1,70.3,29.99,NNW,343,13.8,13.8,72,0.00,FEW,,0.00,754.0,WeatherDisplay:10.37,2013-08-23 10:10:00,
2013-08-23 12:15:00,80.1,70.3,29.99,WSW,254,9.2,9.2,72,0.00,FEW,,0.00,761.0,WeatherDisplay:10.37,2013-08-23 10:15:00,
2013-08-23 12:20:00,80.3,70.0,29.99,West,263,11.5,11.5,71,0.00,FEW,,0.00,761.0,WeatherDisplay:10.37,2013-08-23 10:20:00,
2013-08-23 12:25:00,80.3,70.4,29.99,SSW,203,11.5,11.5,72,0.00,FEW,,0.00,765.0,WeatherDisplay:10.37,2013-08-23 10:25:00,
2013-08-23 12:30:00,80.3,69.6,29.99,SSW,213,11.5,11.5,70,0.00,FEW,,0.00,768.0,WeatherDisplay:10.37,2013-08-23 10:30:00,
2013-08-23 12:35:00,80.2,69.5,29.99,West,274,12.0,12.0,70,0.00,FEW,,0.00,770.0,WeatherDisplay:10.37,2013-08-23 10:35:00,
2013-08-23 12:40:00,80.1,69.8,29.99,WNW,298,10.4,10.4,71,0.00,FEW,,0.00,766.0,WeatherDisplay:10.37,2013-08-23 10:40:00,
2013-08-23 12:45:00,80.1,69.8,29.99,West,265,11.5,11.5,71,0.00,FEW,,0.00,773.0,WeatherDisplay:10.37,2013-08-23 10:45:00,
2013-08-23 12:50:00,80.4,69.7,29.99,West,269,13.8,13.8,70,0.00,FEW,,0.00,779.0,WeatherDisplay:10.37,2013-08-23 10:50:00,
2013-08-23 12:55:00,79.6,68.5,29.99,West,264,13.8,13.8,69,0.00,FEW,,0.00,780.0,WeatherDisplay:10.37,2013-08-23 10:55:00,
2013-08-23 13:00:00,79.5,69.3,29.99,West,274,13.8,13.8,71,0.00,FEW,,0.00,782.0,WeatherDisplay:10.37,2013-08-23 11:00:00,
2013-08-23 13:05:00,80.0,70.2,29.99,SW,228,12.7,12.7,72,0.00,FEW,,0.00,780.0,WeatherDisplay:10.37,2013-08-23 11:05:00,
2013-08-23 13:10:00,79.9,69.7,29.98,West,271,17.3,17.3,71,0.00,FEW,,0.00,782.0,WeatherDisplay:10.37,2013-08-23 11:10:00,
2013-08-23 13:15:00,79.8,69.1,29.99,WSW,254,15.0,15.0,70,0.00,FEW,,0.00,779.0,WeatherDisplay:10.37,2013-08-23 11:15:00,
2013-08-23 13:20:00,79.7,68.2,29.99,West,275,12.7,12.7,68,0.00,FEW,,0.00,779.0,WeatherDisplay:10.37,2013-08-23 11:20:00,
2013-08-23 13:25:00,80.0,68.9,29.99,NW,313,15.0,15.0,69,0.00,FEW,,0.00,777.0,WeatherDisplay:10.37,2013-08-23 11:25:00,
2013-08-23 13:31:00,80.5,70.2,29.98,SW,227,13.8,13.8,71,0.00,FEW,,0.00,775.0,WeatherDisplay:10.37,2013-08-23 11:31:00,
2013-08-23 13:36:00,80.2,68.7,29.98,WSW,245,12.7,12.7,68,0.00,FEW,,0.00,775.0,WeatherDisplay:10.37,2013-08-23 11:36:00,
2013-08-23 13:41:00,80.3,69.6,29.98,WSW,258,16.1,16.1,70,0.00,FEW,,0.00,779.0,WeatherDisplay:10.37,2013-08-23 11:41:00,
2013-08-23 13:46:00,80.8,70.5,29.98,WSW,238,12.7,12.7,71,0.00,FEW,,0.00,775.0,WeatherDisplay:10.37,2013-08-23 11:46:00,
2013-08-23 13:51:00,80.0,70.2,29.98,South,186,17.3,17.3,72,0.00,FEW,,0.00,775.0,WeatherDisplay:10.37,2013-08-23 11:51:00,
2013-08-23 13:56:00,79.8,70.8,29.98,WSW,238,17.3,17.3,74,0.00,FEW,,0.00,766.0,WeatherDisplay:10.37,2013-08-23 11:56:00,
2013-08-23 14:01:00,80.1,71.1,29.98,West,272,16.0,16.0,74,0.00,FEW,,0.00,768.0,WeatherDisplay:10.37,2013-08-23 12:01:00,
2013-08-23 14:06:00,79.6,71.0,29.98,WSW,246,18.4,18.4,75,0.00,FEW,,0.00,759.0,WeatherDisplay:10.37,2013-08-23 12:06:00,
2013-08-23 14:11:00,80.1,71.1,29.99,WSW,246,17.3,17.3,74,0.00,FEW,,0.00,754.0,WeatherDisplay:10.37,2013-08-23 12:11:00,
2013-08-23 14:16:00,79.9,71.3,29.98,West,266,12.7,12.7,75,0.00,FEW,,0.00,745.0,WeatherDisplay:10.37,2013-08-23 12:16:00,
2013-08-23 14:21:00,79.9,70.9,29.98,SW,234,16.1,16.1,74,0.00,FEW,,0.00,737.0,WeatherDisplay:10.37,2013-08-23 12:21:00,
2013-08-23 14:26:00,79.7,70.7,29.98,West,263,17.3,17.3,74,0.00,FEW,,0.00,724.0,WeatherDisplay:10.37,2013-08-23 12:26:00,
2013-08-23 14:31:00,79.2,71.4,29.98,WNW,288,16.1,16.1,77,0.00,FEW,,0.00,722.0,WeatherDisplay:10.37,2013-08-23 12:31:00,
2013-08-23 14:36:00,79.7,71.1,29.98,WNW,286,18.4,18.4,75,0.00,FEW,,0.00,724.0,WeatherDisplay:10.37,2013-08-23 12:36:00,
2013-08-23 14:41:00,79.7,71.1,29.98,East,99,18.4,18.4,75,0.00,FEW,,0.00,712.0,WeatherDisplay:10.37,2013-08-23 12:41:00,
2013-08-23 14:46:00,80.0,71.8,29.98,WSW,248,16.1,16.1,76,0.00,FEW,,0.00,710.0,WeatherDisplay:10.37,2013-08-23 12:46:00,
2013-08-23 14:51:00,79.8,70.8,29.98,WSW,255,15.0,15.0,74,0.00,FEW,,0.00,698.0,WeatherDisplay:10.37,2013-08-23 12:51:00,
2013-08-23 14:56:00,79.9,70.9,29.97,West,274,15.0,15.0,74,0.00,FEW,,0.00,700.0,WeatherDisplay:10.37,2013-08-23 12:56:00,
2013-08-23 15:01:00,79.7,70.7,29.97,West,267,17.3,17.3,74,0.00,FEW,,0.00,687.0,WeatherDisplay:10.37,2013-08-23 13:01:00,
2013-08-23 15:06:00,80.1,70.7,29.97,WSW,253,13.8,13.8,73,0.00,FEW,,0.00,686.0,WeatherDisplay:10.37,2013-08-23 13:06:00,
2013-08-23 15:11:00,80.1,71.5,29.97,WSW,242,16.1,16.1,75,0.00,FEW,,0.00,675.0,WeatherDisplay:10.37,2013-08-23 13:11:00,
2013-08-23 15:16:00,80.2,70.4,29.97,SW,234,19.6,19.6,72,0.00,FEW,,0.00,664.0,WeatherDisplay:10.37,2013-08-23 13:16:00,
2013-08-23 15:21:00,80.1,71.1,29.97,WSW,248,17.3,17.3,74,0.00,FEW,,0.00,661.0,WeatherDisplay:10.37,2013-08-23 13:21:00,
2013-08-23 15:26:00,80.0,71.4,29.97,WSW,251,12.7,12.7,75,0.00,FEW,,0.00,652.0,WeatherDisplay:10.37,2013-08-23 13:26:00,
2013-08-23 15:31:00,80.0,71.4,29.97,West,268,15.0,15.0,75,0.00,FEW,,0.00,638.0,WeatherDisplay:10.37,2013-08-23 13:31:00,
2013-08-23 15:36:00,80.7,71.6,29.97,West,269,13.0,13.0,74,0.00,FEW,,0.00,624.0,WeatherDisplay:10.37,2013-08-23 13:36:00,
2013-08-23 15:41:00,80.4,71.3,29.97,WNW,289,17.3,17.3,74,0.00,FEW,,0.00,615.0,WeatherDisplay:10.37,2013-08-23 13:41:00,
2013-08-23 15:46:00,80.2,71.6,29.97,WSW,242,19.0,19.0,75,0.00,FEW,,0.00,608.0,WeatherDisplay:10.37,2013-08-23 13:46:00,
2013-08-23 15:51:00,80.0,71.4,29.97,WSW,251,16.1,16.1,75,0.00,FEW,,0.00,594.0,WeatherDisplay:10.37,2013-08-23 13:51:00,
2013-08-23 15:56:00,80.1,71.5,29.97,SSW,209,14.0,14.0,75,0.00,FEW,,0.00,582.0,WeatherDisplay:10.37,2013-08-23 13:56:00,
2013-08-23 16:01:00,80.2,71.2,29.97,WSW,257,16.1,16.1,74,0.00,FEW,,0.00,571.0,WeatherDisplay:10.37,2013-08-23 14:01:00,
2013-08-23 16:06:00,79.9,72.0,29.97,West,261,15.0,15.0,77,0.00,FEW,,0.00,561.0,WeatherDisplay:10.37,2013-08-23 14:06:00,
2013-08-23 16:11:00,80.0,71.8,29.96,WSW,242,15.0,15.0,76,0.00,FEW,,0.00,548.0,WeatherDisplay:10.37,2013-08-23 14:11:00,
2013-08-23 16:16:00,80.1,71.8,29.96,WSW,243,16.1,16.1,76,0.00,FEW,,0.00,534.0,WeatherDisplay:10.37,2013-08-23 14:16:00,
2013-08-23 16:21:00,80.4,72.1,29.96,West,261,12.7,12.7,76,0.00,FEW,,0.00,524.0,WeatherDisplay:10.37,2013-08-23 14:21:00,
2013-08-23 16:26:00,79.8,71.6,29.96,West,267,16.1,16.1,76,0.00,FEW,,0.00,510.0,WeatherDisplay:10.37,2013-08-23 14:26:00,
2013-08-23 16:31:00,79.5,70.9,29.96,West,265,15.0,15.0,75,0.00,FEW,,0.00,494.0,WeatherDisplay:10.37,2013-08-23 14:31:00,
2013-08-23 16:36:00,79.8,70.0,29.97,West,262,13.8,13.8,72,0.00,FEW,,0.00,482.0,WeatherDisplay:10.37,2013-08-23 14:36:00,
2013-08-23 16:41:00,80.0,70.2,29.97,West,261,17.3,17.3,72,0.00,FEW,,0.00,468.0,WeatherDisplay:10.37,2013-08-23 14:41:00,
2013-08-23 16:46:00,79.9,70.1,29.97,South,169,13.8,13.8,72,0.00,FEW,,0.00,455.0,WeatherDisplay:10.37,2013-08-23 14:46:00,
2013-08-23 16:51:00,79.7,69.9,29.97,WSW,252,13.8,13.8,72,0.00,FEW,,0.00,441.0,WeatherDisplay:10.37,2013-08-23 14:51:00,
2013-08-23 16:56:00,79.9,70.5,29.97,West,262,12.7,12.7,73,0.00,FEW,,0.00,432.0,WeatherDisplay:10.37,2013-08-23 14:56:00,
2013-08-23 17:01:00,79.6,69.8,29.97,West,275,13.8,13.8,72,0.00,FEW,,0.00,418.0,WeatherDisplay:10.37,2013-08-23 15:01:00,
2013-08-23 17:06:00,79.9,70.5,29.97,SW,234,12.7,12.7,73,0.00,FEW,,0.00,404.0,WeatherDisplay:10.37,2013-08-23 15:06:00,
2013-08-23 17:11:00,80.2,69.5,29.97,West,263,16.1,16.1,70,0.00,FEW,,0.00,392.0,WeatherDisplay:10.37,2013-08-23 15:11:00,
2013-08-23 17:16:00,80.1,69.4,29.96,West,276,12.7,12.7,70,0.00,FEW,,0.00,381.0,WeatherDisplay:10.37,2013-08-23 15:16:00,
2013-08-23 17:21:00,80.2,69.5,29.97,SW,236,11.5,11.5,70,0.00,FEW,,0.00,364.0,WeatherDisplay:10.37,2013-08-23 15:21:00,
2013-08-23 17:26:00,80.8,69.7,29.97,WSW,258,12.0,12.0,69,0.00,FEW,,0.00,348.0,WeatherDisplay:10.37,2013-08-23 15:26:00,
2013-08-23 17:31:00,80.3,69.6,29.96,SSW,196,11.5,11.5,70,0.00,FEW,,0.00,334.0,WeatherDisplay:10.37,2013-08-23 15:31:00,
2013-08-23 17:36:00,80.5,70.2,29.97,WSW,247,13.8,13.8,71,0.00,FEW,,0.00,322.0,WeatherDisplay:10.37,2013-08-23 15:36:00,
2013-08-23 17:41:00,80.2,70.8,29.96,SW,236,11.5,11.5,73,0.00,FEW,,0.00,302.0,WeatherDisplay:10.37,2013-08-23 15:41:00,
2013-08-23 17:46:00,80.3,70.0,29.97,WSW,240,11.5,11.5,71,0.00,CLR,,0.00,287.0,WeatherDisplay:10.37,2013-08-23 15:46:00,
2013-08-23 17:51:00,80.4,69.7,29.96,WSW,243,10.4,10.4,70,0.00,CLR,,0.00,271.0,WeatherDisplay:10.37,2013-08-23 15:51:00,
2013-08-23 17:56:00,80.2,69.5,29.96,West,273,14.0,14.0,70,0.00,CLR,,0.00,253.0,WeatherDisplay:10.37,2013-08-23 15:56:00,
2013-08-23 18:01:00,80.2,69.9,29.96,WSW,250,12.0,12.0,71,0.00,FEW,,0.00,241.0,WeatherDisplay:10.37,2013-08-23 16:01:00,
2013-08-23 18:06:00,80.1,69.8,29.96,WSW,239,10.4,10.4,71,0.00,FEW,,0.00,227.0,WeatherDisplay:10.37,2013-08-23 16:06:00,
2013-08-23 18:11:00,80.0,70.2,29.96,WSW,254,11.5,11.5,72,0.00,FEW,,0.00,209.0,WeatherDisplay:10.37,2013-08-23 16:11:00,
2013-08-23 18:16:00,79.9,70.5,29.96,WSW,240,11.5,11.5,73,0.00,FEW,,0.00,197.0,WeatherDisplay:10.37,2013-08-23 16:16:00,
2013-08-23 18:21:00,80.0,70.6,29.96,WSW,240,12.0,12.0,73,0.00,FEW,,0.00,183.0,WeatherDisplay:10.37,2013-08-23 16:21:00,
2013-08-23 18:26:00,79.6,70.2,29.96,SW,225,12.7,12.7,73,0.00,FEW,,0.00,171.0,WeatherDisplay:10.37,2013-08-23 16:26:00,
2013-08-23 18:31:00,79.6,70.6,29.96,West,265,12.7,12.7,74,0.00,FEW,,0.00,155.0,WeatherDisplay:10.37,2013-08-23 16:31:00,
2013-08-23 18:36:00,79.4,70.4,29.96,WSW,240,11.5,11.5,74,0.00,FEW,,0.00,142.0,WeatherDisplay:10.37,2013-08-23 16:36:00,
2013-08-23 18:41:00,79.5,70.9,29.96,SSW,211,9.2,9.2,75,0.00,FEW,,0.00,130.0,WeatherDisplay:10.37,2013-08-23 16:41:00,
2013-08-23 18:46:00,79.1,70.5,29.96,WSW,245,11.5,11.5,75,0.00,FEW,,0.00,118.0,WeatherDisplay:10.37,2013-08-23 16:46:00,
2013-08-23 18:51:00,79.2,70.6,29.96,WSW,244,11.5,11.5,75,0.00,FEW,,0.00,102.0,WeatherDisplay:10.37,2013-08-23 16:51:00,
2013-08-23 18:56:00,79.2,70.6,29.96,West,261,11.5,11.5,75,0.00,SCT,,0.00,91.0,WeatherDisplay:10.37,2013-08-23 16:56:00,
2013-08-23 19:01:00,79.1,70.9,29.96,WSW,242,10.4,10.4,76,0.00,SCT,,0.00,77.0,WeatherDisplay:10.37,2013-08-23 17:01:00,
2013-08-23 19:06:00,78.9,70.7,29.96,WSW,252,10.4,10.4,76,0.00,SCT,,0.00,65.0,WeatherDisplay:10.37,2013-08-23 17:06:00,
2013-08-23 19:11:00,78.9,70.7,29.96,West,259,9.2,9.2,76,0.00,SCT,,0.00,51.0,WeatherDisplay:10.37,2013-08-23 17:11:00,
2013-08-23 19:16:00,78.9,70.7,29.96,WSW,240,8.1,8.1,76,0.00,SCT,,0.00,40.0,WeatherDisplay:10.37,2013-08-23 17:16:00,
2013-08-23 19:21:00,79.0,70.8,29.96,SW,227,5.8,5.8,76,0.00,SCT,,0.00,30.0,WeatherDisplay:10.37,2013-08-23 17:21:00,
2013-08-23 19:26:00,78.9,70.7,29.96,SW,230,9.2,9.2,76,0.00,BKN,,0.00,23.0,WeatherDisplay:10.37,2013-08-23 17:26:00,
2013-08-23 19:31:00,78.7,70.5,29.96,SE,127,9.2,9.2,76,0.00,BKN,,0.00,14.0,WeatherDisplay:10.37,2013-08-23 17:31:00,
2013-08-23 19:36:00,78.7,70.5,29.97,West,277,10.0,10.0,76,0.00,BKN,,0.00,7.0,WeatherDisplay:10.37,2013-08-23 17:36:00,
2013-08-23 19:41:00,78.5,70.3,29.96,SW,223,6.9,6.9,76,0.00,BKN,,0.00,5.0,WeatherDisplay:10.37,2013-08-23 17:41:00,
2013-08-23 19:46:00,78.5,70.3,29.97,WSW,254,8.1,8.1,76,0.00,,,0.00,0.0,WeatherDisplay:10.37,2013-08-23 17:46:00,
2013-08-23 19:52:00,78.3,70.1,29.96,West,275,8.1,8.1,76,0.00,,,0.00,0.0,WeatherDisplay:10.37,2013-08-23 17:52:00,
2013-08-23 19:57:00,78.3,70.1,29.96,West,261,9.2,9.2,76,0.00,,,0.00,0.0,WeatherDisplay:10.37,2013-08-23 17:57:00,
2013-08-23 20:02:00,78.2,69.6,29.96,West,259,9.2,9.2,75,0.00,,,0.00,0.0,WeatherDisplay:10.37,2013-08-23 18:02:00,
2013-08-23 20:07:00,78.2,69.6,29.96,SW,227,8.1,8.1,75,0.00,,,0.00,0.0,WeatherDisplay:10.37,2013-08-23 18:07:00,
2013-08-23 20:12:00,78.2,69.6,29.96,WSW,254,8.1,8.1,75,0.00,,,0.00,0.0,WeatherDisplay:10.37,2013-08-23 18:12:00,
2013-08-23 20:17:00,78.1,69.5,29.97,WNW,288,5.8,5.8,75,0.00,,,0.00,0.0,WeatherDisplay:10.37,2013-08-23 18:17:00,
2013-08-23 20:22:00,78.0,69.4,29.97,West,266,6.0,6.0,75,0.00,,,0.00,0.0,WeatherDisplay:10.37,2013-08-23 18:22:00,
2013-08-23 20:27:00,78.1,69.5,29.97,WNW,293,4.0,4.0,75,0.00,,,0.00,0.0,WeatherDisplay:10.37,2013-08-23 18:27:00,
2013-08-23 20:32:00,78.1,69.1,29.97,WNW,286,5.8,5.8,74,0.00,,,0.00,0.0,WeatherDisplay:10.37,2013-08-23 18:32:00,
2013-08-23 20:37:00,78.1,69.1,29.97,WNW,291,6.9,6.9,74,0.00,,,0.00,0.0,WeatherDisplay:10.37,2013-08-23 18:37:00,
2013-08-23 20:42:00,78.1,69.1,29.98,West,271,8.1,8.1,74,0.00,,,0.00,0.0,WeatherDisplay:10.37,2013-08-23 18:42:00,
2013-08-23 20:47:00,78.0,69.0,29.98,West,279,6.0,6.0,74,0.00,,,0.00,0.0,WeatherDisplay:10.37,2013-08-23 18:47:00,
2013-08-23 20:52:00,78.0,69.0,29.98,SW,236,4.6,4.6,74,0.00,,,0.00,0.0,WeatherDisplay:10.37,2013-08-23 18:52:00,
2013-08-23 20:57:00,78.0,69.0,29.98,WSW,254,4.6,4.6,74,0.00,,,0.00,0.0,WeatherDisplay:10.37,2013-08-23 18:57:00,
2013-08-23 21:02:00,77.9,68.5,29.98,WNW,283,4.0,4.0,73,0.00,,,0.00,0.0,WeatherDisplay:10.37,2013-08-23 19:02:00,
2013-08-23 21:07:00,77.7,68.7,29.98,West,268,3.5,3.5,74,0.00,,,0.00,0.0,WeatherDisplay:10.37,2013-08-23 19:07:00,
2013-08-23 21:12:00,77.7,68.7,29.98,WNW,291,3.5,3.5,74,0.00,,,0.00,0.0,WeatherDisplay:10.37,2013-08-23 19:12:00,
2013-08-23 21:17:00,77.6,68.7,29.98,WNW,294,3.5,3.5,74,0.00,,,0.00,0.0,WeatherDisplay:10.37,2013-08-23 19:17:00,
2013-08-23 21:22:00,77.4,68.5,29.99,NW,323,4.0,4.0,74,0.00,,,0.00,0.0,WeatherDisplay:10.37,2013-08-23 19:22:00,
2013-08-23 21:27:00,77.2,68.7,29.99,NW,312,3.5,3.5,75,0.00,,,0.00,0.0,WeatherDisplay:10.37,2013-08-23 19:27:00,
2013-08-23 21:32:00,77.0,68.5,29.99,NW,312,3.5,3.5,75,0.00,,,0.00,0.0,WeatherDisplay:10.37,2013-08-23 19:32:00,
2013-08-23 21:37:00,76.9,68.4,29.99,NW,312,2.3,2.3,75,0.00,,,0.00,0.0,WeatherDisplay:10.37,2013-08-23 19:37:00,
2013-08-23 21:42:00,76.9,68.4,29.99,NW,312,2.3,2.3,75,0.00,,,0.00,0.0,WeatherDisplay:10.37,2013-08-23 19:42:00,
2013-08-23 21:47:00,76.8,68.3,29.99,NW,312,2.3,2.3,75,0.00,,,0.00,0.0,WeatherDisplay:10.37,2013-08-23 19:47:00,
2013-08-23 21:52:00,76.7,68.6,29.99,NW,312,1.0,0.0,76,0.00,,,0.00,0.0,WeatherDisplay:10.37,2013-08-23 19:52:00,
2013-08-23 21:57:00,76.7,68.6,29.99,NW,312,0.0,0.0,76,0.00,,,0.00,0.0,WeatherDisplay:10.37,2013-08-23 19:57:00,
2013-08-23 22:02:00,76.7,68.6,29.99,NW,312,0.0,0.0,76,0.00,,,0.00,0.0,WeatherDisplay:10.37,2013-08-23 20:02:00,
2013-08-23 22:07:00,76.5,68.4,29.99,NW,312,0.0,0.0,76,0.00,,,0.00,0.0,WeatherDisplay:10.37,2013-08-23 20:07:00,
2013-08-23 22:12:00,76.4,68.3,29.99,NW,312,0.0,0.0,76,0.00,,,0.00,0.0,WeatherDisplay:10.37,2013-08-23 20:12:00,
2013-08-23 22:17:00,76.1,67.2,29.99,NW,312,1.2,1.2,74,0.00,,,0.00,0.0,WeatherDisplay:10.37,2013-08-23 20:17:00,
2013-08-23 22:22:00,75.8,66.5,29.99,NW,312,0.0,0.0,73,0.00,,,0.00,0.0,WeatherDisplay:10.37,2013-08-23 20:22:00,
2013-08-23 22:27:00,75.8,66.5,29.99,NW,312,0.0,0.0,73,0.00,,,0.00,0.0,WeatherDisplay:10.37,2013-08-23 20:27:00,
2013-08-23 22:32:00,75.9,67.0,29.99,NW,312,0.0,0.0,74,0.00,,,0.00,0.0,WeatherDisplay:10.37,2013-08-23 20:32:00,
2013-08-23 22:37:00,76.0,67.1,29.99,NW,312,0.0,0.0,74,0.00,,,0.00,0.0,WeatherDisplay:10.37,2013-08-23 20:37:00,
2013-08-23 22:42:00,75.9,66.6,29.99,NW,312,0.0,0.0,73,0.00,,,0.00,0.0,WeatherDisplay:10.37,2013-08-23 20:42:00,
2013-08-23 22:47:00,75.8,66.1,29.99,NW,312,0.0,0.0,72,0.00,,,0.00,0.0,WeatherDisplay:10.37,2013-08-23 20:47:00,
2013-08-23 22:52:00,75.6,65.9,30.00,NW,312,0.0,0.0,72,0.00,,,0.00,0.0,WeatherDisplay:10.37,2013-08-23 20:52:00,
2013-08-23 22:57:00,75.5,65.8,29.99,NW,312,0.0,0.0,72,0.00,,,0.00,0.0,WeatherDisplay:10.37,2013-08-23 20:57:00,
2013-08-23 23:02:00,75.5,65.8,29.99,NW,312,0.0,0.0,72,0.00,,,0.00,0.0,WeatherDisplay:10.37,2013-08-23 21:02:00,
2013-08-23 23:07:00,75.4,66.1,29.99,NW,312,0.0,0.0,73,0.00,,,0.00,0.0,WeatherDisplay:10.37,2013-08-23 21:07:00,
2013-08-23 23:12:00,75.5,66.6,29.99,NW,312,0.0,0.0,74,0.00,,,0.00,0.0,WeatherDisplay:10.37,2013-08-23 21:12:00,
2013-08-23 23:17:00,75.6,66.7,29.99,NW,326,1.2,1.2,74,0.00,,,0.00,0.0,WeatherDisplay:10.37,2013-08-23 21:17:00,
2013-08-23 23:22:00,75.7,66.8,30.00,NW,326,0.0,0.0,74,0.00,,,0.00,0.0,WeatherDisplay:10.37,2013-08-23 21:22:00,
2013-08-23 23:27:00,75.8,66.9,30.00,NW,326,0.0,0.0,74,0.00,,,0.00,0.0,WeatherDisplay:10.37,2013-08-23 21:27:00,
2013-08-23 23:32:00,75.8,67.3,30.00,NW,326,0.0,0.0,75,0.00,,,0.00,0.0,WeatherDisplay:10.37,2013-08-23 21:32:00,
2013-08-23 23:37:00,75.8,67.3,30.00,NW,326,0.0,0.0,75,0.00,,,0.00,0.0,WeatherDisplay:10.37,2013-08-23 21:37:00,
2013-08-23 23:42:00,75.8,67.3,30.00,ENE,69,0.0,0.0,75,0.00,,,0.00,0.0,WeatherDisplay:10.37,2013-08-23 21:42:00,
2013-08-23 23:47:00,75.7,67.2,30.00,ENE,69,0.0,0.0,75,0.00,,,0.00,0.0,WeatherDisplay:10.37,2013-08-23 21:47:00,
2013-08-23 23:52:00,75.6,67.1,30.00,ENE,69,1.2,0.0,75,0.00,,,0.00,0.0,WeatherDisplay:10.37,2013-08-23 21:52:00,
2013-08-23 23:57:00,75.6,67.5,30.00,ENE,69,0.0,0.0,76,0.00,,,0.00,0.0,WeatherDisplay:10.37,2013-08-23 21:57:00,